RH
30 30 29 29 28 26 26 25 25 24 23 22 22 26 28 29 31 32 32 33 34 35 35 35 34 34 35 36 36 36 35 35 35 35 35 35 37 39 40 40 40 40
31 31 31 30 27 25 25 25 25 23 22 22 22 24 27 28 30 30 31 33 34 35 35 35 35 36 37 38 38 38 38 36 36 37 36 37 38 39 41 42 42 40
30 31 32 31 27 24 24 25 25 23 22 21 21 22 25 27 29 29 29 30 32 34 35 36 37 37 37 39 39 40 40 39 38 37 36 37 39 40 43 45 45 44
29 30 31 31 27 26 25 25 25 23 22 21 21 22 24 26 28 28 27 28 30 32 33 35 36 35 34 35 36 37 38 37 36 35 34 34 35 37 39 41 44 45
28 29 30 30 29 28 26 26 25 23 22 22 21 21 23 25 26 27 27 28 29 29 30 31 30 30 29 29 31 34 34 34 34 32 31 31 31 33 34 36 38 40
28 28 28 29 29 28 28 26 25 23 23 22 22 22 22 23 25 26 27 27 28 28 27 28 27 27 27 26 27 29 30 34 36 34 32 31 30 31 32 33 34 35
26 27 28 28 29 28 28 27 25 24 24 24 23 23 22 22 23 24 25 25 26 26 25 25 25 24 25 25 24 27 28 30 33 33 34 34 31 30 31 30 31 33
25 26 26 27 28 28 27 27 25 24 24 24 24 23 22 22 22 23 24 23 23 23 22 22 22 21 22 23 23 25 25 26 28 29 31 32 32 31 31 30 30 31
25 25 26 26 27 27 27 26 25 23 23 23 24 24 23 22 22 22 22 22 22 21 21 21 20 20 20 21 22 23 24 24 26 27 28 29 30 31 31 32 33 32
24 25 25 25 25 26 26 27 26 24 22 21 22 24 23 22 22 21 21 21 21 20 20 20 19 18 17 18 19 22 23 24 24 24 26 28 29 30 30 33 35 34
24 24 24 24 24 25 26 27 29 27 23 20 20 23 23 21 20 20 21 20 20 19 19 18 18 16 15 16 18 21 22 23 23 23 25 27 28 28 29 30 33 34
24 24 24 23 23 24 27 28 29 28 25 21 19 20 21 21 19 19 19 19 19 19 18 17 16 15 14 15 18 20 21 22 23 24 24 25 25 27 28 29 29 30
23 23 23 23 23 24 27 28 28 28 27 24 20 18 20 20 19 18 18 18 18 18 18 17 15 14 14 15 18 21 21 22 23 24 23 23 23 24 25 27 26 26
23 23 23 23 23 23 25 26 27 27 27 27 22 18 19 19 18 17 17 18 18 17 17 16 15 13 13 15 18 21 22 22 22 22 22 21 21 21 22 24 24 25
23 23 22 22 22 22 23 24 24 24 25 25 21 18 18 19 19 19 17 17 17 17 16 16 15 14 13 16 19 21 22 21 21 21 21 20 19 20 21 21 22 22
24 22 21 21 22 22 22 22 22 22 22 22 20 18 18 18 18 19 18 17 16 15 16 15 14 13 14 16 19 21 21 21 20 20 20 19 19 19 19 19 19 20
25 23 21 21 21 21 21 21 22 21 21 21 20 19 18 18 18 18 18 18 16 15 14 14 13 12 13 16 18 19 21 21 19 18 18 18 18 17 17 17 17 17
26 25 22 20 20 20 21 21 21 21 20 20 20 19 18 19 19 18 18 19 19 16 14 13 12 11 13 15 17 18 20 20 20 19 18 17 16 16 16 15 16 16
27 26 24 22 20 19 20 20 20 20 19 19 19 19 19 19 19 19 18 19 19 17 14 13 12 11 12 15 17 17 19 21 21 19 18 17 17 16 15 15 16 15
27 27 26 25 22 20 19 19 19 18 18 18 19 19 19 18 19 19 19 18 17 17 15 14 13 12 12 14 16 17 18 20 21 20 20 19 18 17 17 15 15 15
30 27 27 27 26 23 20 19 18 19 18 18 18 18 18 18 19 19 19 18 18 17 16 14 13 12 12 14 15 17 18 20 21 22 21 21 20 19 17 16 15 15
32 29 28 28 28 27 23 20 19 19 19 19 19 18 18 18 18 18 19 19 18 18 17 16 14 13 13 15 16 17 19 20 22 23 23 22 22 20 18 17 15 15
33 30 28 29 29 29 26 22 20 19 19 19 19 19 19 18 18 17 18 19 19 18 18 17 15 15 15 16 17 18 20 21 22 23 23 23 23 22 20 17 16 15
31 28 27 27 28 29 28 24 21 20 19 19 19 19 19 19 18 18 18 19 19 18 18 17 16 17 18 19 19 21 22 23 23 23 24 23 23 22 20 18 16 16
27 26 26 27 28 29 28 25 22 20 20 19 19 18 18 19 19 18 18 18 18 18 19 18 19 21 22 22 22 24 26 26 26 26 25 24 23 23 22 19 17 17
22 22 23 24 25 26 25 23 21 21 20 20 20 19 19 19 19 20 19 19 19 19 19 20 22 23 24 24 25 26 28 29 29 30 29 27 25 24 23 21 19 18